Bellingham, Washington, United States (98225)
Lat: 48.76N, Lon: 122.49W
Wx Zone: WAZ503
Local Info
Past Weather Observations for Monday, October 20, 2014

NOTE: This archive is for the closest National Weather Service station to Bellingham. Information may differ from the station used for current weather conditions.

Click here for Long-term Archive

Time Weather Temperature Dewpoint Humidity Pressure Winds Precip Visibility
23:53
Overcast
Light Rain
57°F / 14°C 52°F / 11°C 82% 29.77 in
(1008 mb)
SSE 13.8 mph
(SSE 22 kph)
0.03 in
(0.76 mm)
10SM
23:15
Overcast
57°F / 14°C 52°F / 11°C 82% 29.74 in
(1007 mb)
SSE 11.5 mph
(SSE 19 kph)
- 10SM
22:53
Overcast
57°F / 14°C 52°F / 11°C 82% 29.74 in
(1007 mb)
SSE 9.2 mph
(SSE 15 kph)
- 10SM
21:53
Overcast
57°F / 14°C 52°F / 11°C 82% 29.74 in
(1007 mb)
SSE 10.4 mph
(SSE 17 kph)
- 10SM
21:37
Overcast
57°F / 14°C 52°F / 11°C 82% 29.74 in
(1007 mb)
SSE 8.1 mph
(SSE 13 kph)
- 10SM
20:53
Overcast
57°F / 14°C 52°F / 11°C 82% 29.74 in
(1007 mb)
SSE 10.4 mph
(SSE 17 kph)
- 10SM
20:04
Overcast
57°F / 14°C 54°F / 12°C 88% 29.74 in
(1007 mb)
Variable 4.6 mph
(Variable 7 kph)
- 10SM
19:53
Overcast
57°F / 14°C 54°F / 12°C 88% 29.74 in
(1007 mb)
SW 5.8 mph
(SW 9 kph)
0.20 in
(5.08 mm)
10SM
19:39
Overcast
Light Rain
57°F / 14°C 54°F / 12°C 88% 29.74 in
(1007 mb)
Calm 0.20 in
(5.08 mm)
5SM
19:30
Overcast
Rain
57°F / 14°C 54°F / 12°C 88% 29.74 in
(1007 mb)
Variable 4.6 mph
(Variable 7 kph)
0.19 in
(4.83 mm)
3SM
19:05
Overcast
Rain
57°F / 14°C 54°F / 12°C 88% 29.74 in
(1007 mb)
S 8.1 mph
(S 13 kph)
0.10 in
(2.54 mm)
3SM
18:53
Overcast
Heavy Rain
57°F / 14°C 54°F / 12°C 88% 29.74 in
(1007 mb)
SSW 9.2 mph
(SSW 15 kph)
0.18 in
(4.57 mm)
1 3/4SM
18:45
Overcast
Rain
57°F / 14°C 54°F / 12°C 88% 29.71 in
(1006 mb)
NW 9.2 mph
(NW 15 kph)
0.06 in
(1.52 mm)
5SM
18:00
Overcast
Light Rain
59°F / 15°C 54°F / 12°C 82% 29.71 in
(1006 mb)
SE 8.1 mph
(SE 13 kph)
0.00 in
(0.00 mm)
8SM
17:53
Overcast
Light Rain
57°F / 14°C 54°F / 12°C 88% 29.71 in
(1006 mb)
SE 8.1 mph
(SE 13 kph)
0.03 in
(0.76 mm)
10SM
17:07
Overcast
Light Rain
59°F / 15°C 54°F / 12°C 82% 29.71 in
(1006 mb)
S 3.5 mph
(S 6 kph)
0.00 in
(0.00 mm)
10SM
17:00
Overcast
Light Rain
59°F / 15°C 52°F / 11°C 77% 29.71 in
(1006 mb)
SSE 4.6 mph
(SSE 7 kph)
0.00 in
(0.00 mm)
10SM
16:53
Overcast
Light Rain
59°F / 15°C 54°F / 12°C 82% 29.71 in
(1006 mb)
S 5.8 mph
(S 9 kph)
0.01 in
(0.25 mm)
10SM
16:10
Overcast
Light Rain
61°F / 16°C 52°F / 11°C 72% 29.71 in
(1006 mb)
SSE 12.7 mph
(SSE 20 kph)
0.01 in
(0.25 mm)
9SM
15:53
Overcast
61°F / 16°C 54°F / 12°C 77% 29.71 in
(1006 mb)
S 6.9 mph
(S 11 kph)
- 10SM
14:53
Overcast
61°F / 16°C 54°F / 12°C 77% 29.71 in
(1006 mb)
SSE 8.1 mph
(SSE 13 kph)
0.00 in
(0.00 mm)
10SM
14:21
Overcast
Light Rain
61°F / 16°C 54°F / 12°C 77% 29.74 in
(1007 mb)
S 8.1 mph
(S 13 kph)
0.00 in
(0.00 mm)
10SM
13:53
Overcast
61°F / 16°C 52°F / 11°C 72% 29.74 in
(1007 mb)
S 4.6 mph
(S 7 kph)
0.00 in
(0.00 mm)
10SM
12:53
Partly Cloudy
61°F / 16°C 54°F / 12°C 77% 29.71 in
(1006 mb)
S 5.8 mph
(S 9 kph)
- 10SM
11:53
Overcast
61°F / 16°C 55°F / 13°C 83% 29.71 in
(1006 mb)
S 9.2 mph
(S 15 kph)
0.00 in
(0.00 mm)
10SM
10:53
Overcast
Light Rain
57°F / 14°C 55°F / 13°C 94% 29.74 in
(1007 mb)
SSE 9.2 mph
(SSE 15 kph)
0.02 in
(0.51 mm)
10SM
10:40
Overcast
Light Rain
57°F / 14°C 55°F / 13°C 94% 29.74 in
(1007 mb)
SSE 8.1 mph
(SSE 13 kph)
0.02 in
(0.51 mm)
10SM
10:31
Overcast
Light Rain
57°F / 14°C 54°F / 12°C 88% 29.74 in
(1007 mb)
S 5.8 mph
(S 9 kph)
0.02 in
(0.51 mm)
8SM
10:20
Overcast
Light Rain
57°F / 14°C 54°F / 12°C 88% 29.71 in
(1006 mb)
Variable 5.8 mph
(Variable 9 kph)
0.02 in
(0.51 mm)
2 1/2SM
09:53
Overcast
Light Rain
57°F / 14°C 54°F / 12°C 88% 29.71 in
(1006 mb)
S 8.1 mph
(S 13 kph)
0.06 in
(1.52 mm)
5SM
09:21
Overcast
Light Rain
57°F / 14°C 55°F / 13°C 94% 29.71 in
(1006 mb)
S 6.9 mph
(S 11 kph)
0.06 in
(1.52 mm)
5SM
09:13
Overcast
Heavy Rain
57°F / 14°C 55°F / 13°C 94% 29.71 in
(1006 mb)
S 11.5 mph
(S 19 kph)
0.05 in
(1.27 mm)
5SM
09:10
Overcast
Light Rain
57°F / 14°C 55°F / 13°C 94% 29.71 in
(1006 mb)
S 9.2 mph
(S 15 kph)
0.04 in
(1.02 mm)
2SM
08:53
Overcast
59°F / 15°C 54°F / 12°C 82% 29.71 in
(1006 mb)
S 8.1 mph
(S 13 kph)
- 10SM
07:53
Overcast
61°F / 16°C 54°F / 12°C 77% 29.68 in
(1005 mb)
S 8.1 mph
(S 13 kph)
- 10SM
06:53
Overcast
61°F / 16°C 54°F / 12°C 77% 29.65 in
(1004 mb)
S 3.5 mph
(S 6 kph)
- 10SM
05:53
Overcast
61°F / 16°C 54°F / 12°C 77% 29.65 in
(1004 mb)
SSE 10.4 mph
(SSE 17 kph)
0.01 in
(0.25 mm)
10SM
04:53
Overcast
Light Rain
59°F / 15°C 55°F / 13°C 88% 29.65 in
(1004 mb)
S 4.6 mph
(S 7 kph)
0.01 in
(0.25 mm)
9SM
03:53
Overcast
61°F / 16°C 55°F / 13°C 83% 29.65 in
(1004 mb)
SSE 6.9 mph
(SSE 11 kph)
0.00 in
(0.00 mm)
10SM
02:53
Overcast
Light Rain
63°F / 17°C 54°F / 12°C 73% 29.65 in
(1004 mb)
SSE 10.4 mph
(SSE 17 kph)
0.00 in
(0.00 mm)
10SM
01:53
Overcast
Light Rain
63°F / 17°C 54°F / 12°C 73% 29.65 in
(1004 mb)
SSE 18.4 mph
(SSE 30 kph)
0.04 in
(1.02 mm)
10SM
00:53
Overcast
Light Rain
61°F / 16°C 55°F / 13°C 83% 29.65 in
(1004 mb)
SE 8.1 mph
(SE 13 kph)
0.07 in
(1.78 mm)
8SM
Time Weather Temperature Dewpoint Humidity Pressure Winds Precip Visibility


Weather for websites

WeatherForYou.com, LLC is not responsible for any damages or problems caused by this service. Current weather conditions are obtained from the closest station including government and personal stations which may have varying degrees of accuracy. Weather forecasts are derived from the NOAA NDFD. Like all things, this site belongs to Jesus Christ... He just trusts me to maintain it. If you have any questions or comments email webmaster@weatherforyou.com

Copyright © 2014, WeatherForYou.com LLC. All rights reserved.